Hourly Weather Budrevichi

Today, 6 August, Thursday

Time Temperature Precipitation Wind Pressure Humidity
00:00 +15°C° 0 mm 2 mps 748 mmHg 85%
01:00 +15°C° 0 mm 2 mps 748 mmHg 86%
02:00 +14°C° 0 mm 2 mps 748 mmHg 87%
03:00 +14°C° 0 mm 2 mps 748 mmHg 88%
04:00 +14°C° 0 mm 2 mps 748 mmHg 90%
05:00 +14°C° 0 mm 2 mps 749 mmHg 91%
06:00 +15°C° 0 mm 2 mps 749 mmHg 85%
07:00 +17°C° 0 mm 2 mps 749 mmHg 80%
08:00 +18°C° 0 mm 3 mps 750 mmHg 74%
09:00 +19°C° 0 mm 2 mps 750 mmHg 69%
10:00 +21°C° 0 mm 2 mps 750 mmHg 65%
11:00 +23°C° 0 mm 2 mps 751 mmHg 60%
12:00 +24°C° 0 mm 2 mps 751 mmHg 57%
13:00 +25°C° 0 mm 2 mps 751 mmHg 54%
14:00 +25°C° 0 mm 2 mps 751 mmHg 51%
15:00 +25°C° 0 mm 2 mps 751 mmHg 53%
16:00 +25°C° 0 mm 2 mps 750 mmHg 54%
17:00 +25°C° 0 mm 2 mps 750 mmHg 56%
18:00 +23°C° 0 mm 2 mps 750 mmHg 62%
19:00 +20°C° 0 mm 2 mps 750 mmHg 67%
20:00 +18°C° 0 mm 2 mps 750 mmHg 73%
21:00 +18°C° 0 mm 2 mps 751 mmHg 75%
22:00 +17°C° 0 mm 2 mps 751 mmHg 77%
23:00 +16°C° 0 mm 2 mps 751 mmHg 79%

Tomorrow, 7 August, Friday

Time Temperature Precipitation Wind Pressure Humidity
00:00 +16°C° 0 mm 2 mps 751 mmHg 79%
01:00 +15°C° 0 mm 2 mps 751 mmHg 80%
02:00 +15°C° 0 mm 2 mps 751 mmHg 81%
03:00 +15°C° 0 mm 2 mps 751 mmHg 83%
04:00 +15°C° 0 mm 2 mps 752 mmHg 85%
05:00 +15°C° 0 mm 2 mps 752 mmHg 87%
06:00 +16°C° 0 mm 2 mps 752 mmHg 82%
07:00 +18°C° 0 mm 2 mps 752 mmHg 78%
08:00 +20°C° 0 mm 2 mps 752 mmHg 73%
09:00 +21°C° 0 mm 2 mps 752 mmHg 68%
10:00 +24°C° 0 mm 2 mps 752 mmHg 63%
11:00 +25°C° 0 mm 2 mps 753 mmHg 58%
12:00 +26°C° 0 mm 2 mps 752 mmHg 56%
13:00 +27°C° 0 mm 2 mps 752 mmHg 54%
14:00 +27°C° 0 mm 2 mps 752 mmHg 52%
15:00 +27°C° 0 mm 2 mps 752 mmHg 54%
16:00 +27°C° 0 mm 2 mps 751 mmHg 56%
17:00 +27°C° 0 mm 2 mps 751 mmHg 58%
18:00 +25°C° 0 mm 2 mps 751 mmHg 64%
19:00 +23°C° 0 mm 2 mps 751 mmHg 71%
20:00 +21°C° 0 mm 2 mps 751 mmHg 77%
21:00 +20°C° 0 mm 2 mps 751 mmHg 79%
22:00 +19°C° 0 mm 2 mps 751 mmHg 81%
23:00 +18°C° 0 mm 2 mps 751 mmHg 84%

Day after tomorrow, 8 August, Saturday

Time Temperature Precipitation Wind Pressure Humidity
00:00 +18°C° 0 mm 2 mps 751 mmHg 86%
01:00 +18°C° 0 mm 1 mps 751 mmHg 88%
02:00 +18°C° 0 mm 1 mps 751 mmHg 90%
03:00 +18°C° 0 mm 1 mps 751 mmHg 90%
04:00 +18°C° 0 mm 1 mps 751 mmHg 91%
05:00 +16°C° 0 mm 1 mps 751 mmHg 92%
06:00 +19°C° 0 mm 1 mps 751 mmHg 86%
07:00 +21°C° 0 mm 1 mps 751 mmHg 81%
08:00 +23°C° 0 mm 1 mps 751 mmHg 75%
09:00 +24°C° 0 mm 1 mps 751 mmHg 70%
10:00 +25°C° 0 mm 1 mps 751 mmHg 66%
11:00 +26°C° 0 mm 1 mps 751 mmHg 61%
12:00 +27°C° 0.1 mm 1 mps 750 mmHg 59%
13:00 +27°C° 0.1 mm 1 mps 750 mmHg 56%
14:00 +28°C° 0.1 mm 1 mps 750 mmHg 54%
15:00 +27°C° 0.2 mm 1 mps 749 mmHg 56%
16:00 +27°C° 0.2 mm 1 mps 749 mmHg 57%
17:00 +27°C° 0.2 mm 1 mps 749 mmHg 59%
18:00 +25°C° 0.1 mm 1 mps 749 mmHg 66%
19:00 +24°C° 0.1 mm 1 mps 748 mmHg 72%
20:00 +22°C° 0.1 mm 1 mps 748 mmHg 79%
21:00 +21°C° 0 mm 1 mps 748 mmHg 81%
22:00 +20°C° 0 mm 1 mps 748 mmHg 83%
23:00 +20°C° 0 mm 1 mps 748 mmHg 85%

9 August, Sunday

Time Temperature Precipitation Wind Pressure Humidity
00:00 +19°C° 0 mm 1 mps 748 mmHg 86%
01:00 +19°C° 0 mm 1 mps 748 mmHg 88%
02:00 +19°C° 0 mm 1 mps 748 mmHg 89%
03:00 +18°C° 0 mm 1 mps 748 mmHg 90%
04:00 +18°C° 0 mm 1 mps 747 mmHg 90%
05:00 +18°C° 0 mm 1 mps 747 mmHg 91%
06:00 +19°C° 0 mm 1 mps 747 mmHg 87%
07:00 +21°C° 0 mm 1 mps 747 mmHg 83%
08:00 +22°C° 0 mm 1 mps 747 mmHg 79%
09:00 +23°C° 0.3 mm 2 mps 747 mmHg 74%
10:00 +24°C° 0.3 mm 2 mps 747 mmHg 70%
11:00 +26°C° 0.3 mm 2 mps 747 mmHg 65%
12:00 +26°C° 0.4 mm 2 mps 747 mmHg 64%
13:00 +26°C° 0.4 mm 2 mps 747 mmHg 62%
14:00 +27°C° 0.4 mm 2 mps 747 mmHg 60%
15:00 +27°C° 0.4 mm 2 mps 746 mmHg 61%
16:00 +27°C° 0.4 mm 2 mps 746 mmHg 62%
17:00 +26°C° 0.4 mm 2 mps 746 mmHg 63%
18:00 +25°C° 0.2 mm 2 mps 746 mmHg 69%
19:00 +23°C° 0.2 mm 2 mps 746 mmHg 76%
20:00 +20°C° 0.2 mm 2 mps 746 mmHg 82%
21:00 +20°C° 0 mm 2 mps 746 mmHg 85%
22:00 +19°C° 0 mm 2 mps 746 mmHg 87%
23:00 +18°C° 0 mm 2 mps 746 mmHg 90%

10 August, Monday

Time Temperature Precipitation Wind Pressure Humidity
00:00 +18°C° 0 mm 2 mps 746 mmHg 91%
01:00 +18°C° 0 mm 2 mps 746 mmHg 92%
02:00 +17°C° 0 mm 2 mps 746 mmHg 93%
03:00 +17°C° 0 mm 2 mps 746 mmHg 94%
04:00 +17°C° 0 mm 2 mps 746 mmHg 94%
05:00 +16°C° 0 mm 2 mps 746 mmHg 95%
06:00 +18°C° 0 mm 2 mps 746 mmHg 91%
07:00 +19°C° 0 mm 2 mps 746 mmHg 87%
08:00 +21°C° 0 mm 2 mps 747 mmHg 83%
09:00 +23°C° 0.1 mm 2 mps 747 mmHg 77%
10:00 +25°C° 0.1 mm 2 mps 747 mmHg 71%
11:00 +26°C° 0.1 mm 2 mps 747 mmHg 64%
12:00 +27°C° 0.8 mm 2 mps 747 mmHg 62%
13:00 +27°C° 0.8 mm 2 mps 746 mmHg 59%
14:00 +28°C° 0.8 mm 3 mps 746 mmHg 57%
15:00 +28°C° 0.3 mm 2 mps 746 mmHg 58%
16:00 +27°C° 0.3 mm 2 mps 746 mmHg 59%
17:00 +27°C° 0.3 mm 2 mps 746 mmHg 60%
18:00 +26°C° 0.1 mm 1 mps 746 mmHg 67%
19:00 +24°C° 0.1 mm 1 mps 746 mmHg 74%
20:00 +20°C° 0.1 mm 0 mps 746 mmHg 80%
21:00 +19°C° 0.1 mm 0 mps 746 mmHg 82%
22:00 +19°C° 0.1 mm 0 mps 746 mmHg 83%
23:00 +18°C° 0.1 mm 0 mps 746 mmHg 85%

11 August, Tuesday

Time Temperature Precipitation Wind Pressure Humidity
00:00 +18°C° 0.2 mm 0 mps 746 mmHg 86%
01:00 +19°C° 0.2 mm 1 mps 746 mmHg 87%
02:00 +19°C° 0.2 mm 1 mps 746 mmHg 88%
03:00 +17°C° 0.3 mm 0 mps 746 mmHg 89%
04:00 +16°C° 0.3 mm 0 mps 746 mmHg 89%
05:00 +16°C° 0.3 mm 0 mps 746 mmHg 90%
06:00 +18°C° 0.1 mm 0 mps 746 mmHg 86%
07:00 +19°C° 0.1 mm 0 mps 746 mmHg 82%
08:00 +21°C° 0.1 mm 0 mps 746 mmHg 78%
09:00 +22°C° 0.4 mm 0 mps 746 mmHg 73%
10:00 +26°C° 0.4 mm 1 mps 746 mmHg 68%
11:00 +27°C° 0.4 mm 1 mps 746 mmHg 63%
12:00 +27°C° 0.8 mm 1 mps 746 mmHg 60%
13:00 +28°C° 0.8 mm 1 mps 746 mmHg 58%
14:00 +28°C° 0.8 mm 1 mps 746 mmHg 56%
15:00 +28°C° 0.3 mm 2 mps 746 mmHg 59%
16:00 +27°C° 0.3 mm 2 mps 746 mmHg 61%
17:00 +27°C° 0.3 mm 2 mps 745 mmHg 64%
18:00 +25°C° 0.2 mm 2 mps 745 mmHg 71%
19:00 +23°C° 0.2 mm 2 mps 745 mmHg 79%
20:00 +20°C° 0.2 mm 2 mps 745 mmHg 86%
21:00 +20°C° 0.1 mm 2 mps 745 mmHg 88%
22:00 +19°C° 0.1 mm 2 mps 746 mmHg 90%
23:00 +18°C° 0.1 mm 3 mps 746 mmHg 92%
Show more